User: anonymous
Location: Prairie State College
(41.5244°N, 87.6382°W)
Time: 16:35:10
(UTC-05:00)
Language:

Cosmos 1943 - Orbit

View from above orbital plane
View from above orbital plane
View from above satellite
View from above satellite

Ground track
Ground track

The orbit data is extracted from the following two-line orbital elements,

1 19119U 88039A   14294.15550137 -.00000093  00000-0 -23525-4 0  2758
2 19119 071.0046 338.6798 0008878 090.3555 329.5686 14.14960012364878
Epoch (UTC): 21 October 2014 03:43:55
Eccentricity: 0.0008878
inclination: 71.0046°
perigee height: 836 km
apogee height: 849 km
right ascension of ascending node: 338.6798°
argument of perigee: 90.3555°
revolutions per day: 14.14960012
mean anomaly at epoch: 329.5686°
orbit number at epoch: 36487

The dashed part of the orbit path shows where the satellite is in the earth's shadow,  

DLR